BNO38 ENBO-ENEV

Flight info

Callsign BNO38
Flight time 0h 33m
Altitude 15000
Route PENNO
Aircraft BE20/L-SBGRY/S

Departure

Time 2026-05-06 01:57
Airport Bodø Airport (ENBO)

Arrival

Time 2026-05-06 02:30
Airport Harstad/Narvik Airport (ENEV)
Time Latitude Longitude Altitude Speed Heading
2026-05-06 01:48 67.26563 14.35501 34 ft 0 kts 167°
2026-05-06 01:53 67.26561 14.35504 34 ft 1 kts 135°
2026-05-06 01:53 67.26560 14.35514 34 ft 1 kts 70°
2026-05-06 01:53 67.26585 14.35562 34 ft 10 kts 30°
2026-05-06 01:53 67.26619 14.35573 34 ft 5 kts 284°
2026-05-06 01:54 67.26647 14.35423 34 ft 15 kts 345°
2026-05-06 01:54 67.26718 14.35647 35 ft 23 kts 77°
2026-05-06 01:54 67.26743 14.35945 36 ft 28 kts 68°
2026-05-06 01:54 67.26791 14.36497 38 ft 26 kts 79°
2026-05-06 01:55 67.26845 14.37170 41 ft 34 kts 77°
2026-05-06 01:55 67.26886 14.37668 42 ft 30 kts 78°
2026-05-06 01:55 67.26932 14.38254 45 ft 37 kts 78°
2026-05-06 01:55 67.26962 14.38467 46 ft 2 kts 326°
2026-05-06 01:56 67.27003 14.38440 46 ft 10 kts 345°
2026-05-06 01:56 67.27067 14.38397 44 ft 7 kts 330°
2026-05-06 01:56 67.27064 14.38217 45 ft 19 kts 257°
2026-05-06 01:56 67.26989 14.37316 41 ft 87 kts 258°
2026-05-06 01:57 67.26886 14.36046 93 ft 120 kts 257°
2026-05-06 01:57 67.26693 14.33765 450 ft 142 kts 257°
2026-05-06 01:57 67.26508 14.31095 823 ft 163 kts 263°
2026-05-06 01:57 67.26374 14.28027 1187 ft 179 kts 272°
2026-05-06 01:58 67.26740 14.24896 1568 ft 188 kts 301°
2026-05-06 01:58 67.27680 14.22521 1951 ft 193 kts 331°
2026-05-06 01:58 67.28926 14.21278 2338 ft 195 kts 341°
2026-05-06 01:58 67.30218 14.20137 2721 ft 198 kts 341°
2026-05-06 01:59 67.31523 14.18957 3100 ft 199 kts 340°
2026-05-06 01:59 67.32836 14.17755 3471 ft 201 kts 340°
2026-05-06 01:59 67.34155 14.16546 3841 ft 202 kts 341°
2026-05-06 01:59 67.35479 14.15333 4221 ft 202 kts 341°
2026-05-06 02:00 67.36803 14.14119 4596 ft 202 kts 341°
2026-05-06 02:00 67.38131 14.12902 4998 ft 201 kts 341°
2026-05-06 02:00 67.39487 14.12509 5439 ft 198 kts 11°
2026-05-06 02:00 67.40720 14.14010 5894 ft 198 kts 41°
2026-05-06 02:01 67.41565 14.16817 6350 ft 197 kts 56°
2026-05-06 02:01 67.42324 14.19796 6786 ft 198 kts 56°
2026-05-06 02:01 67.43084 14.22794 7227 ft 198 kts 56°
2026-05-06 02:01 67.43847 14.25787 7671 ft 199 kts 56°
2026-05-06 02:02 67.44614 14.28791 8121 ft 199 kts 56°
2026-05-06 02:02 67.45383 14.31809 8578 ft 200 kts 56°
2026-05-06 02:02 67.46154 14.34843 9044 ft 202 kts 56°
2026-05-06 02:02 67.46931 14.37900 9520 ft 203 kts 56°
2026-05-06 02:03 67.47714 14.40990 9959 ft 205 kts 56°
2026-05-06 02:03 67.48506 14.44116 10397 ft 208 kts 56°
2026-05-06 02:03 67.49305 14.47279 10842 ft 210 kts 56°
2026-05-06 02:03 67.50109 14.50466 11291 ft 211 kts 56°
2026-05-06 02:04 67.50911 14.53643 11740 ft 213 kts 56°
2026-05-06 02:04 67.51736 14.56921 12214 ft 214 kts 56°
2026-05-06 02:04 67.52555 14.60182 12680 ft 215 kts 56°
2026-05-06 02:04 67.53379 14.63465 13160 ft 217 kts 56°
2026-05-06 02:05 67.54211 14.66781 13630 ft 219 kts 56°
2026-05-06 02:05 67.55050 14.70134 14063 ft 221 kts 56°
2026-05-06 02:05 67.55893 14.73511 14501 ft 223 kts 56°
2026-05-06 02:05 67.56757 14.76971 14721 ft 234 kts 56°
2026-05-06 02:06 67.57669 14.80636 14756 ft 246 kts 56°
2026-05-06 02:06 67.58660 14.84385 14761 ft 253 kts 50°
2026-05-06 02:06 67.59727 14.88021 14761 ft 258 kts 53°
2026-05-06 02:06 67.60800 14.91939 14759 ft 262 kts 53°
2026-05-06 02:07 67.61885 14.95806 14757 ft 264 kts 52°
2026-05-06 02:07 67.62992 14.99665 14759 ft 265 kts 52°
2026-05-06 02:07 67.64100 15.03545 14771 ft 266 kts 52°
2026-05-06 02:07 67.65189 15.07393 14770 ft 266 kts 53°
2026-05-06 02:08 67.66292 15.11302 14766 ft 266 kts 53°
2026-05-06 02:08 67.67394 15.15204 14766 ft 266 kts 53°
2026-05-06 02:08 67.68501 15.19128 14766 ft 266 kts 53°
2026-05-06 02:08 67.69599 15.23032 14766 ft 266 kts 53°
2026-05-06 02:09 67.70699 15.26947 14768 ft 266 kts 53°
2026-05-06 02:09 67.71797 15.30865 14768 ft 266 kts 53°
2026-05-06 02:09 67.72895 15.34786 14768 ft 266 kts 53°
2026-05-06 02:09 67.73992 15.38714 14763 ft 266 kts 53°
2026-05-06 02:10 67.75087 15.42643 14762 ft 266 kts 53°
2026-05-06 02:10 67.76182 15.46576 14761 ft 266 kts 53°
2026-05-06 02:10 67.77276 15.50511 14760 ft 266 kts 53°
2026-05-06 02:10 67.78368 15.54448 14763 ft 266 kts 53°
2026-05-06 02:11 67.79461 15.58395 14759 ft 266 kts 53°
2026-05-06 02:11 67.80554 15.62351 14760 ft 267 kts 53°
2026-05-06 02:11 67.81649 15.66319 14760 ft 267 kts 53°
2026-05-06 02:11 67.82744 15.70296 14760 ft 268 kts 53°
2026-05-06 02:12 67.83839 15.74282 14764 ft 268 kts 53°
2026-05-06 02:12 67.84934 15.78272 14761 ft 268 kts 53°
2026-05-06 02:12 67.86026 15.82262 14761 ft 268 kts 53°
2026-05-06 02:12 67.87120 15.86262 14761 ft 268 kts 53°
2026-05-06 02:13 67.88214 15.90269 14761 ft 268 kts 53°
2026-05-06 02:13 67.89305 15.94279 14762 ft 268 kts 53°
2026-05-06 02:13 67.90400 15.98302 14762 ft 268 kts 53°
2026-05-06 02:13 67.91489 16.02320 14764 ft 268 kts 53°
2026-05-06 02:14 67.92582 16.06341 14769 ft 268 kts 52°
2026-05-06 02:14 67.93948 16.09589 14768 ft 265 kts 26°
2026-05-06 02:14 67.95707 16.10840 14760 ft 262 kts
2026-05-06 02:14 67.97528 16.11295 14760 ft 263 kts
2026-05-06 02:15 67.99355 16.11673 14759 ft 264 kts
2026-05-06 02:15 68.01184 16.12104 14757 ft 264 kts
2026-05-06 02:15 68.03009 16.12190 14762 ft 263 kts 357°
2026-05-06 02:15 68.04848 16.12021 14681 ft 266 kts 358°
2026-05-06 02:16 68.06637 16.11988 14343 ft 249 kts 360°
2026-05-06 02:16 68.08329 16.12048 13944 ft 237 kts 359°
2026-05-06 02:16 68.09947 16.12078 13547 ft 228 kts 359°
2026-05-06 02:16 68.11512 16.12084 13110 ft 221 kts 359°
2026-05-06 02:17 68.13033 16.12091 12699 ft 215 kts 359°
2026-05-06 02:17 68.14518 16.12100 12419 ft 215 kts 359°
2026-05-06 02:17 68.15999 16.12108 12142 ft 216 kts 359°
2026-05-06 02:17 68.17501 16.12123 11985 ft 212 kts 359°
2026-05-06 02:18 68.18966 16.12132 11825 ft 211 kts 359°
2026-05-06 02:18 68.20440 16.12143 11565 ft 213 kts 359°
2026-05-06 02:18 68.21924 16.12155 11290 ft 214 kts 359°
2026-05-06 02:18 68.23439 16.12167 11004 ft 215 kts 359°
2026-05-06 02:19 68.24920 16.12178 10722 ft 216 kts 359°
2026-05-06 02:19 68.26423 16.12190 10435 ft 216 kts 359°
2026-05-06 02:19 68.27926 16.12202 10147 ft 216 kts 359°
2026-05-06 02:19 68.29426 16.12214 9862 ft 216 kts 359°
2026-05-06 02:20 68.32418 16.12237 9270 ft 214 kts 359°
2026-05-06 02:20 68.33901 16.12249 8982 ft 212 kts 359°
2026-05-06 02:20 68.35374 16.12261 8700 ft 211 kts 359°
2026-05-06 02:21 68.36839 16.12272 8427 ft 210 kts 359°
2026-05-06 02:21 68.38296 16.12283 8145 ft 209 kts 359°
2026-05-06 02:21 68.39745 16.12353 7866 ft 207 kts
2026-05-06 02:21 68.41124 16.13421 7598 ft 207 kts 18°
2026-05-06 02:22 68.42483 16.14716 7326 ft 207 kts 19°
2026-05-06 02:22 68.43844 16.15988 7050 ft 207 kts 18°
2026-05-06 02:22 68.45203 16.17236 6774 ft 206 kts 18°
2026-05-06 02:22 68.46561 16.18484 6503 ft 206 kts 18°
2026-05-06 02:23 68.47916 16.19735 6228 ft 205 kts 18°
2026-05-06 02:23 68.49267 16.20985 5950 ft 205 kts 18°
2026-05-06 02:23 68.50616 16.22232 5673 ft 204 kts 18°
2026-05-06 02:23 68.51958 16.23475 5408 ft 203 kts 18°
2026-05-06 02:24 68.53293 16.24723 5135 ft 202 kts 20°
2026-05-06 02:24 68.54416 16.26888 4891 ft 200 kts 52°
2026-05-06 02:24 68.55145 16.30069 4701 ft 197 kts 59°
2026-05-06 02:24 68.55820 16.33314 4503 ft 196 kts 59°
2026-05-06 02:25 68.56496 16.36533 4299 ft 195 kts 59°
2026-05-06 02:25 68.57172 16.39726 4103 ft 194 kts 59°
2026-05-06 02:25 68.57845 16.42906 3906 ft 193 kts 59°
2026-05-06 02:25 68.58510 16.46057 3713 ft 187 kts 59°
2026-05-06 02:26 68.59139 16.49047 3535 ft 175 kts 59°
2026-05-06 02:26 68.59666 16.51953 3272 ft 170 kts 71°
2026-05-06 02:26 68.59887 16.55093 2998 ft 167 kts 86°
2026-05-06 02:26 68.59800 16.58247 2719 ft 166 kts 101°
2026-05-06 02:27 68.59434 16.61095 2455 ft 152 kts 116°
2026-05-06 02:27 68.58865 16.63392 2224 ft 140 kts 131°
2026-05-06 02:27 68.58163 16.65101 2007 ft 134 kts 145°
2026-05-06 02:27 68.57342 16.66301 1785 ft 133 kts 160°
2026-05-06 02:28 68.56459 16.66927 1558 ft 129 kts 173°
2026-05-06 02:28 68.55592 16.67057 1364 ft 120 kts 179°
2026-05-06 02:28 68.54813 16.67147 1161 ft 107 kts 178°
2026-05-06 02:28 68.54060 16.67246 1001 ft 111 kts 176°
2026-05-06 02:29 68.53277 16.67355 827 ft 113 kts 179°
2026-05-06 02:29 68.52493 16.67421 634 ft 113 kts 177°
2026-05-06 02:29 68.51705 16.67518 434 ft 113 kts 174°
2026-05-06 02:29 68.50928 16.67625 281 ft 111 kts 176°
2026-05-06 02:30 68.50154 16.67706 110 ft 110 kts 176°
2026-05-06 02:30 68.49465 16.67792 87 ft 89 kts 180°
2026-05-06 02:30 68.49096 16.67846 91 ft 23 kts 184°
2026-05-06 02:30 68.48926 16.67852 89 ft 22 kts 175°
2026-05-06 02:31 68.48889 16.67999 91 ft 11 kts 92°
2026-05-06 02:31 68.48889 16.68154 88 ft 0 kts 88°